Location: Grossmotten
(48.5500°N, 15.3833°E)
Time: 03:20:03
(UTC+00:00)

Cosmos 1606 - Pass Details

Date: 15 November 2019
Orbit: 504 x 528 km, 82.5° (Epoch: 06 December)

Event Time Altitude Azimuth Distance (km) Brightness Sun altitude
Rises 04:25:27 0° 358° (N) 2,620 6.2 -16.5°
Reaches altitude 10° 04:27:44 10° 8° (N) 1,732 5.3 -16.2°
Maximum altitude 04:31:12 33° 74° (ENE) 878 4.5 -15.6°
Drops below altitude 10° 04:34:39 10° 139° (SE) 1,727 6.1 -15.0°
Sets 04:36:55 0° 150° (SSE) 2,612 6.9 -14.7°
